Regional Weather Roundup
Issued by NWS

Home | Current Version | Previous Version | Graphics & Text | Print | Product List | Glossary On
Versions: 1 2 3 4 5 6 7 8 9 10 11 12 13 14 15 16 17 18 19 20 21 22 23 24 25 26 27 28 29 30 31 32 33 34 35 36 37 38 39 40 41 42 43 44 45 46 47 48 49 50
000
ASUS43 KFSD 290602
RWRSD

WEATHER ROUNDUP FOR SOUTH DAKOTA
NATIONAL WEATHER SERVICE SIOUX FALLS SD
100 AM CDT FRI AUG 29 2014

NOTE: "FAIR" INDICATES FEW OR NO CLOUDS BELOW 12,000 FEET WITH NO
SIGNIFICANT WEATHER AND/OR OBSTRUCTIONS TO VISIBILITY.


SDZ001>005-009-010-012>017-290700-
NORTHWEST AND NORTH CENTRAL SOUTH DAKOTA

CITY           SKY/WX    TMP DP  RH WIND       PRES   REMARKS
BUFFALO          N/A     65  54  67 S6        29.81F
FAITH            N/A     61  60  97 S10       29.86F
MOBRIDGE       FOG       64  64 100 E3        29.82S VSB 1/2
$$

SDZ012>016-024>037-041>051-057-063-072>074-290700-
SOUTHWEST AND SOUTH CENTRAL SOUTH DAKOTA

CITY           SKY/WX    TMP DP  RH WIND       PRES   REMARKS
RAPID CTY ARPT CLEAR     56  55  97 CALM      29.92F
PIERRE         MOCLDY    66  65  96 N5        29.82S
CUSTER         CLEAR     51  48  89 W3        30.06F
ELLSWORTH AFB  CLEAR     63  57  82 SW2       29.91F
PHILIP         PTCLDY    60  58  92 W3        29.86F
PINE RIDGE     PTCLDY    54  52  93 CALM      29.95F
WINNER         FAIR      67  65  93 W6        29.85R
$$

SDZ004>011-016>023-039-040-290700-
NORTHEAST SOUTH DAKOTA

CITY           SKY/WX    TMP DP  RH WIND       PRES   REMARKS
ABERDEEN       CLOUDY    65  65 100 E7        29.82F
WATERTOWN      CLOUDY    66  66 100 E5        29.83F FOG
SISSETON         N/A     65  65 100 CALM      29.82F
$$

SDZ017-020-022-023-036>040-048>070-290700-
SOUTHEAST SOUTH DAKOTA

CITY           SKY/WX    TMP DP  RH WIND       PRES   REMARKS
SIOUX FALLS    CLOUDY    71  70  96 E3        29.81S FOG
HURON          CLOUDY    69  68  96 E7        29.78F
CHAMBERLAIN    CLOUDY    67  67  99 NW6       29.81S
MITCHELL       CLOUDY    71  70  96 E3        29.78F FOG
YANKTON        MOCLDY    70  66  88 E10       29.76F
$$

ABBREVIATIONS USED IN REMARKS
   TC - TEMPERATURE IN CELSIUS
  WCI - WIND CHILL INDEX
   HX - HEAT INDEX
  VSB - VISIBILITY



USA.gov is the U.S. government's official web portal to all federal, state and local government web resources and services.